Regional Weather Roundup
Issued by NWS Sterling, VA

Home | Current Version | Previous Version | Graphics & Text | Print | Product List | Glossary On
Versions: 1 2 3 4 5 6 7 8 9 10 11 12 13 14 15 16 17 18 19 20 21 22 23 24 25 26 27
000
ASUS41 KLWX 270411
RWRLWX

REGIONAL WEATHER ROUNDUP
NATIONAL WEATHER SERVICE BALTIMORE MD/WASHINGTON DC
1200 AM EDT WED JUL 27 2016

Note: "FAIR" indicates few or no clouds below 12,000 feet
with no significant weather and/or obstructions to visibility.
 TC=TEMPERATURE CELSIUS

 * =Non NWS site. Station does not report precipitation (e.g. rain,
    snow, etc.), thunder, or fog.

DCZ001-MDZ009-015-VAZ040>042-051-053>054-270500-
WASHINGTON METRO

CITY           SKY/WX    TMP DP  RH WIND       PRES   REMARKS
WASHINGTON NAT CLOUDY    85  72  65 SW6       29.93F HX  91
DULLES         MOCLDY    81  73  76 SW7       29.95S
ANDREWS AFB    CLOUDY    80  72  76 S3        29.93S
FT BELVOIR     FAIR      82  72  72 NW2       29.94R
QUANTICO       FAIR      81  75  82 W5        29.95R
COLLEGE PARK*  FAIR      77  72  83 CALM      29.93R
LEESBURG*      FAIR      81  77  89 SW5       29.97R
MANASSAS*      MOCLDY    79  75  89 CALM      29.96R
GAITHERSBURG*  MOCLDY    75  70  83 CALM      29.99R

$$

MDZ006>007-011-014-270500-
BALTIMORE METRO

CITY           SKY/WX    TMP DP  RH WIND       PRES   REMARKS
BWI AIRPORT    MOCLDY    80  71  74 W3        29.92F
MD SCIENCE CTR   N/A     86  69  56 MISG      29.92S HX  90
MARTIN STATE   CLOUDY    81  79  94 CALM      29.93S
ANNAPOLIS      CLOUDY    83  77  82 CALM      29.91F HX  92
FORT MEADE*    MOCLDY    73  72  94 CALM      29.95S

$$

MDZ012-015-019>023-270500-
MARYLAND EASTERN SHORE

CITY           SKY/WX    TMP DP  RH WIND       PRES   REMARKS
OCEAN CITY     CLOUDY    76  74  93 CALM      29.94S
SALISBURY      PTCLDY    76  74  93 CALM      29.93F
BAY BRIDGE AP* CLOUDY    82  77  83 S3        29.92S HX  91
CAMBRIDGE*     CLOUDY    77  77 100 CALM      29.92F
EASTON*        CLOUDY    82  80  94 CALM      29.96S HX  94

$$

MDZ017>025-270500-
SOUTHERN MARYLAND

CITY           SKY/WX    TMP DP  RH WIND       PRES   REMARKS
PATUXENT RIVER CLOUDY    82  76  81 SW8       29.93S
ST INIGOES     CLOUDY    84  79  85 SW8       29.93R HX  96
LEONARDTOWN*     N/A    N/A N/A N/A MISG        N/A

$$

MDZ003>005-270500-
NORTH CENTRAL MARYLAND

CITY           SKY/WX    TMP DP  RH WIND       PRES   REMARKS
FREDERICK*     MOCLDY    77  73  88 CALM      29.97R
HAGERSTOWN APT CLOUDY    83  61  47 CALM      29.97R

$$

MDZ501>502-270500-
WESTERN MARYLAND

CITY           SKY/WX    TMP DP  RH WIND       PRES   REMARKS
OAKLAND*       CLOUDY    68  68 100 SW3       30.12S
CUMBERLAND*    CLOUDY    79  64  61 CALM      30.04R

$$

VAZ025>031-270500-
SHENANDOAH VALLEY

CITY           SKY/WX    TMP DP  RH WIND       PRES   REMARKS
WINCHESTER*    FAIR      79  70  73 CALM      29.99R
FRONT ROYAL*   FAIR      77  72  83 S7        29.99R
LURAY*         FAIR      73  73 100 CALM      30.01R
NEW MARKET*    FAIR     N/A N/A N/A CALM      30.00S
STAUNTON*      CLOUDY    72  72  99 W3        30.05S FOG
WAYNESBORO*    FAIR      73  71  93 S3        30.05R

$$

WVZ021-048>050-054>055-270500-
EASTERN WEST VIRGINIA PANHANDLE

CITY           SKY/WX    TMP DP  RH WIND       PRES   REMARKS
MARTINSBURG    FAIR      78  69  73 S3        29.96R
PETERSBURG*    FAIR      76  73  88 CALM      30.01R

$$

VAZ036>039-050-270500-
CENTRAL FOOTHILLS

CITY           SKY/WX    TMP DP  RH WIND       PRES   REMARKS
CHARLOTTESVILL FAIR      78  72  81 CALM      30.01R
CULPEPER*      FAIR      76  74  92 SW5       29.99R
ORANGE*          N/A     73  73 100 CALM      30.01S
GORDONSVILLE*  FAIR      75  72  88 CALM      29.98F
WARRENTON*     FAIR      76  69  80 SW7       29.98R

$$

VAZ055>057-270500-
NORTH AND CENTRAL PIEDMONT

CITY           SKY/WX    TMP DP  RH WIND       PRES   REMARKS
FREDERICKSBRG* FAIR      77  77 100 SW6       29.97R
STAFFORD*      FAIR      77  73  85 SW5       30.00R

$$

NCZ024-NYZ072-PAZ021-071-VAZ022-071-270500-
OTHER REGIONAL OBSERVATIONS

CITY           SKY/WX    TMP DP  RH WIND       PRES   REMARKS
NEW YORK CITY  PTCLDY    80  60  50 NW5       29.96R
PHILADELPHIA   CLOUDY    82  73  74 S3        29.92S
PITTSBURGH     PTCLDY    75  59  57 N6        30.02S
ROANOKE        FAIR      78  73  84 NE5       30.06R
RICHMOND       LGT RAIN  75  72  90 CALM      29.95F
RALEIGH        CLOUDY    77  75  93 CALM      29.98F

$$

ANZ530>537-270500-
MARINE OBSERVATIONS

STATION/POSITION TIME  TEMP    WIND        PRES
                       AIR SEA DIR/SP/G
                 (UTC) (F)     (DEG/KT/KT) (MB)
THOMAS PT LIGHT  0400   86 83  210/  9/  9 1014.5F
BALT KEY BRIDGE  0342   84     210/  5/  6 1012.9
COVE POINT       0348   83     260/ 10/ 13 1013.9
LEWISETTA        0348   82 88  240/  9/ 11 1013.5
SOLOMONS ISLAND  0348   83 86  230/  8/  9   N/A
PINEY POINT      0348          260/  6/  8   N/A

$$





USA.gov is the U.S. government's official web portal to all federal, state and local government web resources and services.